Simultaneous Nadir Overpasses (SNOs) Predictions

Prediction of SNOs between GOES-15 and LANDSAT-8 Satellite Orbit:

Table of predicted SNOs for the next 14.0 days since TLE Epoch: 12/2/2023
Index Date Time (GOES-15) GOES-15 Lat,Lon LANDSAT-8 Lat,Lon Distance(km) Time Diff (sec)
1 12/02/2023 06:21:07 -0.16, 61.26 0.61, 57.60 416.13 80
2 12/04/2023 06:08:53 -0.16, 61.22 -0.00, 60.57 74.03 80
3 12/06/2023 05:59:19 -0.15, 61.18 -0.64, 63.54 268.15 80
4 12/06/2023 18:20:41 0.14, 61.22 -0.48, 58.35 326.81 80
5 12/08/2023 18:05:47 0.14, 61.19 0.14, 61.32 15.09 80
6 12/10/2023 17:53:32 0.14, 61.16 0.80, 64.29 355.97 80
7 12/11/2023 06:14:46 -0.13, 61.10 0.26, 59.13 223.10 80
8 12/13/2023 06:05:10 -0.13, 61.08 -0.38, 62.11 117.64 80
9 12/13/2023 18:26:32 0.11, 61.12 -0.78, 56.93 475.78 80
10 12/15/2023 05:52:54 -0.12, 61.07 -0.99, 65.09 457.83 80
11 12/15/2023 18:14:15 0.11, 61.11 -0.16, 59.91 135.91 80
